ACA343 CYVR-CYOW

Flight info

Callsign ACA343
Flight time 4h 22m
Altitude 35000
Route ALNOD DCT IKNIX DCT DATNO DCT RABOX Q828 GABOV Q831 AGLIN/N0452F370 DCT SMARE MEECH4
Aircraft A321/M-SDE3FGHIJ7M3P2RWY/LB1

Departure

Time 2026-05-07 11:07
Airport Vancouver International Airport (CYVR)

Arrival

Time 2026-05-07 15:29
Airport Ottawa Macdonald-Cartier International Airport (CYOW)
Time Latitude Longitude Altitude Speed Heading
2026-05-07 10:30 49.19617 -123.18298 11 ft 0 kts 198°
2026-05-07 10:54 49.19628 -123.18293 11 ft 2 kts 198°
2026-05-07 10:54 49.19643 -123.18286 11 ft 2 kts 198°
2026-05-07 10:54 49.19657 -123.18279 10 ft 2 kts 198°
2026-05-07 10:55 49.19670 -123.18268 11 ft 2 kts 234°
2026-05-07 10:55 49.19676 -123.18246 10 ft 2 kts 266°
2026-05-07 10:55 49.19675 -123.18234 10 ft 1 kts 284°
2026-05-07 10:55 49.19678 -123.18255 10 ft 5 kts 281°
2026-05-07 10:56 49.19684 -123.18293 10 ft 1 kts 283°
2026-05-07 10:56 49.19685 -123.18302 10 ft 0 kts 281°
2026-05-07 10:59 49.19685 -123.18306 10 ft 0 kts 281°
2026-05-07 10:59 49.19687 -123.18323 10 ft 2 kts 281°
2026-05-07 11:00 49.19691 -123.18355 10 ft 3 kts 281°
2026-05-07 11:00 49.19697 -123.18406 10 ft 5 kts 279°
2026-05-07 11:00 49.19705 -123.18476 11 ft 7 kts 281°
2026-05-07 11:00 49.19717 -123.18557 10 ft 8 kts 298°
2026-05-07 11:01 49.19770 -123.18584 10 ft 9 kts
2026-05-07 11:01 49.19842 -123.18564 10 ft 11 kts 10°
2026-05-07 11:01 49.19923 -123.18542 10 ft 12 kts 10°
2026-05-07 11:01 49.20000 -123.18523 10 ft 11 kts 10°
2026-05-07 11:02 49.20074 -123.18502 10 ft 9 kts 11°
2026-05-07 11:02 49.20124 -123.18535 10 ft 8 kts 295°
2026-05-07 11:02 49.20139 -123.18636 10 ft 10 kts 280°
2026-05-07 11:02 49.20153 -123.18760 10 ft 12 kts 280°
2026-05-07 11:03 49.20169 -123.18900 11 ft 14 kts 280°
2026-05-07 11:03 49.20187 -123.19054 11 ft 15 kts 280°
2026-05-07 11:03 49.20207 -123.19224 10 ft 16 kts 279°
2026-05-07 11:03 49.20227 -123.19404 10 ft 17 kts 279°
2026-05-07 11:04 49.20247 -123.19588 10 ft 17 kts 280°
2026-05-07 11:04 49.20269 -123.19775 11 ft 17 kts 280°
2026-05-07 11:04 49.20290 -123.19956 11 ft 15 kts 279°
2026-05-07 11:04 49.20314 -123.20067 11 ft 10 kts 309°
2026-05-07 11:05 49.20370 -123.20127 11 ft 9 kts 346°
2026-05-07 11:05 49.20439 -123.20117 11 ft 10 kts
2026-05-07 11:05 49.20506 -123.20100 11 ft 4 kts 21°
2026-05-07 11:05 49.20515 -123.20068 11 ft 2 kts 98°
2026-05-07 11:06 49.20509 -123.20001 11 ft 23 kts 99°
2026-05-07 11:06 49.20433 -123.19341 11 ft 99 kts 100°
2026-05-07 11:06 49.20274 -123.17961 12 ft 161 kts 100°
2026-05-07 11:06 49.20065 -123.16229 569 ft 169 kts 101°
2026-05-07 11:07 49.19861 -123.14452 1237 ft 173 kts 100°
2026-05-07 11:07 49.19651 -123.12563 1574 ft 189 kts 100°
2026-05-07 11:07 49.19423 -123.10505 1890 ft 206 kts 100°
2026-05-07 11:07 49.19188 -123.08288 2219 ft 222 kts 99°
2026-05-07 11:08 49.18933 -123.05815 2539 ft 242 kts 99°
2026-05-07 11:08 49.18670 -123.03268 3165 ft 248 kts 98°
2026-05-07 11:08 49.18402 -123.00596 3596 ft 263 kts 98°
2026-05-07 11:08 49.18139 -122.97813 4315 ft 266 kts 97°
2026-05-07 11:09 49.17884 -122.95056 5073 ft 267 kts 97°
2026-05-07 11:09 49.17625 -122.92248 5798 ft 268 kts 97°
2026-05-07 11:09 49.17362 -122.89417 6507 ft 271 kts 97°
2026-05-07 11:09 49.17096 -122.86572 7179 ft 273 kts 97°
2026-05-07 11:10 49.16827 -122.83688 7809 ft 277 kts 96°
2026-05-07 11:10 49.16554 -122.80788 8402 ft 281 kts 97°
2026-05-07 11:10 49.16275 -122.77819 9046 ft 284 kts 96°
2026-05-07 11:10 49.15992 -122.74832 9660 ft 288 kts 96°
2026-05-07 11:11 49.15706 -122.71823 10235 ft 292 kts 96°
2026-05-07 11:11 49.15409 -122.68683 10575 ft 305 kts 96°
2026-05-07 11:11 49.15104 -122.65445 10848 ft 319 kts 96°
2026-05-07 11:11 49.14778 -122.62022 11334 ft 325 kts 96°
2026-05-07 11:12 49.14449 -122.58606 11945 ft 328 kts 96°
2026-05-07 11:12 49.14120 -122.55195 12482 ft 332 kts 96°
2026-05-07 11:12 49.13782 -122.51711 13026 ft 335 kts 96°
2026-05-07 11:12 49.13440 -122.48189 13540 ft 339 kts 96°
2026-05-07 11:13 49.13091 -122.44599 14061 ft 343 kts 96°
2026-05-07 11:13 49.12736 -122.40969 14544 ft 347 kts 96°
2026-05-07 11:13 49.12381 -122.37344 15023 ft 351 kts 96°
2026-05-07 11:13 49.12016 -122.33633 15506 ft 355 kts 97°
2026-05-07 11:14 49.11647 -122.29892 15941 ft 359 kts 97°
2026-05-07 11:14 49.11268 -122.26055 16413 ft 363 kts 97°
2026-05-07 11:14 49.10887 -122.22226 16861 ft 366 kts 97°
2026-05-07 11:14 49.10506 -122.18415 17283 ft 370 kts 96°
2026-05-07 11:15 49.10116 -122.14520 17716 ft 374 kts 96°
2026-05-07 11:15 49.09718 -122.10556 18129 ft 378 kts 96°
2026-05-07 11:15 49.09324 -122.06626 18543 ft 382 kts 96°
2026-05-07 11:15 49.08915 -122.02586 18996 ft 384 kts 96°
2026-05-07 11:16 49.08506 -121.98556 19406 ft 388 kts 96°
2026-05-07 11:16 49.08094 -121.94512 19771 ft 392 kts 96°
2026-05-07 11:16 49.07673 -121.90378 20166 ft 395 kts 96°
2026-05-07 11:16 49.07247 -121.86228 20581 ft 398 kts 96°
2026-05-07 11:17 49.06822 -121.82094 20957 ft 401 kts 96°
2026-05-07 11:17 49.06383 -121.77862 21324 ft 405 kts 96°
2026-05-07 11:17 49.05948 -121.73663 21720 ft 407 kts 96°
2026-05-07 11:17 49.05524 -121.69398 22106 ft 409 kts 94°
2026-05-07 11:18 49.05345 -121.65387 22445 ft 410 kts 87°
2026-05-07 11:18 49.05494 -121.60756 22829 ft 410 kts 79°
2026-05-07 11:18 49.05860 -121.56484 23175 ft 412 kts 77°
2026-05-07 11:18 49.06278 -121.52126 23532 ft 415 kts 77°
2026-05-07 11:19 49.06697 -121.47804 23899 ft 417 kts 77°
2026-05-07 11:19 49.07116 -121.43381 24251 ft 421 kts 77°
2026-05-07 11:19 49.07523 -121.38986 24586 ft 424 kts 77°
2026-05-07 11:19 49.07936 -121.34492 24936 ft 427 kts 78°
2026-05-07 11:20 49.08339 -121.30057 25240 ft 430 kts 78°
2026-05-07 11:20 49.08744 -121.25533 25591 ft 432 kts 78°
2026-05-07 11:20 49.09150 -121.20985 25928 ft 435 kts 78°
2026-05-07 11:20 49.09555 -121.16413 26240 ft 438 kts 78°
2026-05-07 11:21 49.09964 -121.11790 26544 ft 441 kts 78°
2026-05-07 11:21 49.10372 -121.07144 26848 ft 443 kts 78°
2026-05-07 11:21 49.10780 -121.02488 27155 ft 446 kts 78°
2026-05-07 11:21 49.11188 -120.97808 27465 ft 448 kts 77°
2026-05-07 11:22 49.11592 -120.93147 27760 ft 450 kts 77°
2026-05-07 11:22 49.12000 -120.88422 28127 ft 450 kts 77°
2026-05-07 11:22 49.12398 -120.83746 28690 ft 445 kts 77°
2026-05-07 11:22 49.12801 -120.79027 29064 ft 445 kts 77°
2026-05-07 11:23 49.13193 -120.74402 29329 ft 447 kts 77°
2026-05-07 11:23 49.13594 -120.69675 29589 ft 450 kts 77°
2026-05-07 11:23 49.13992 -120.64962 29846 ft 452 kts 77°
2026-05-07 11:23 49.14391 -120.60207 30120 ft 454 kts 77°
2026-05-07 11:24 49.14788 -120.55440 30409 ft 456 kts 77°
2026-05-07 11:24 49.15186 -120.50652 30648 ft 458 kts 77°
2026-05-07 11:24 49.15586 -120.45805 30909 ft 460 kts 77°
2026-05-07 11:24 49.15981 -120.40997 31151 ft 462 kts 77°
2026-05-07 11:25 49.16381 -120.36101 31393 ft 464 kts 77°
2026-05-07 11:25 49.16781 -120.31182 31582 ft 467 kts 77°
2026-05-07 11:25 49.17175 -120.26281 31820 ft 468 kts 77°
2026-05-07 11:25 49.17570 -120.21374 32040 ft 470 kts 77°
2026-05-07 11:26 49.17965 -120.16433 32256 ft 471 kts 77°
2026-05-07 11:26 49.18359 -120.11468 32460 ft 473 kts 78°
2026-05-07 11:26 49.18751 -120.06505 32679 ft 475 kts 77°
2026-05-07 11:26 49.19146 -120.01491 32864 ft 477 kts 78°
2026-05-07 11:27 49.19540 -119.96438 33070 ft 478 kts 77°
2026-05-07 11:27 49.19926 -119.91445 33256 ft 480 kts 77°
2026-05-07 11:27 49.20317 -119.86373 33486 ft 480 kts 78°
2026-05-07 11:27 49.20703 -119.81337 33733 ft 480 kts 77°
2026-05-07 11:28 49.21091 -119.76257 33961 ft 481 kts 78°
2026-05-07 11:28 49.21475 -119.71211 34147 ft 482 kts 78°
2026-05-07 11:28 49.21859 -119.66121 34320 ft 483 kts 77°
2026-05-07 11:28 49.22238 -119.61057 34508 ft 484 kts 77°
2026-05-07 11:29 49.22620 -119.55925 34667 ft 486 kts 77°
2026-05-07 11:29 49.23002 -119.50767 34843 ft 487 kts 78°
2026-05-07 11:29 49.23376 -119.45655 35021 ft 488 kts 77°
2026-05-07 11:29 49.23753 -119.40483 35023 ft 489 kts 78°
2026-05-07 11:30 49.24608 -119.30197 35013 ft 485 kts 74°
2026-05-07 11:30 49.26150 -119.20205 35022 ft 479 kts 66°
2026-05-07 11:31 49.28444 -119.10739 35013 ft 474 kts 60°
2026-05-07 11:31 49.31055 -119.01495 35002 ft 473 kts 59°
2026-05-07 11:32 49.34936 -118.87682 34988 ft 472 kts 59°
2026-05-07 11:33 49.37506 -118.78438 34990 ft 472 kts 59°
2026-05-07 11:33 49.40066 -118.69176 34998 ft 472 kts 59°
2026-05-07 11:34 49.42604 -118.59953 34997 ft 473 kts 60°
2026-05-07 11:34 49.45140 -118.50694 34985 ft 473 kts 60°
2026-05-07 11:35 49.47684 -118.41376 34985 ft 473 kts 59°
2026-05-07 11:35 49.50216 -118.32053 34993 ft 472 kts 60°
2026-05-07 11:36 49.52761 -118.22662 35012 ft 474 kts 60°
2026-05-07 11:36 49.55290 -118.13270 34999 ft 473 kts 60°
2026-05-07 11:37 49.57798 -118.03938 34991 ft 473 kts 60°
2026-05-07 11:37 49.60296 -117.94602 34989 ft 473 kts 60°
2026-05-07 11:38 49.62799 -117.85201 34888 ft 474 kts 60°
2026-05-07 11:38 49.65290 -117.75815 35008 ft 475 kts 60°
2026-05-07 11:39 49.67768 -117.66437 35032 ft 475 kts 60°
2026-05-07 11:39 49.70248 -117.57016 35002 ft 475 kts 60°
2026-05-07 11:40 49.72722 -117.47578 34984 ft 475 kts 60°
2026-05-07 11:40 49.75189 -117.38119 34980 ft 475 kts 60°
2026-05-07 11:41 49.77672 -117.28574 34993 ft 478 kts 61°
2026-05-07 11:41 49.80133 -117.19060 35009 ft 477 kts 61°
2026-05-07 11:42 49.82587 -117.09540 35013 ft 478 kts 61°
2026-05-07 11:42 49.85052 -116.99935 35018 ft 478 kts 61°
2026-05-07 11:43 49.87487 -116.90398 35030 ft 478 kts 61°
2026-05-07 11:43 49.89913 -116.80866 35029 ft 478 kts 60°
2026-05-07 11:44 49.92339 -116.71294 35036 ft 476 kts 61°
2026-05-07 11:44 49.94750 -116.61747 35030 ft 477 kts 61°
2026-05-07 11:45 49.97155 -116.52162 35025 ft 476 kts 60°
2026-05-07 11:45 49.99538 -116.42638 35028 ft 475 kts 60°
2026-05-07 11:46 50.01928 -116.33051 35030 ft 474 kts 61°
2026-05-07 11:46 50.04304 -116.23472 35040 ft 476 kts 61°
2026-05-07 11:47 50.06677 -116.13854 35035 ft 475 kts 61°
2026-05-07 11:47 50.09166 -116.04403 35035 ft 472 kts 59°
2026-05-07 11:48 50.11681 -115.95005 35027 ft 472 kts 59°
2026-05-07 11:48 50.14200 -115.85509 35021 ft 470 kts 59°
2026-05-07 11:49 50.16671 -115.76136 35018 ft 471 kts 59°
2026-05-07 11:49 50.19134 -115.66720 35023 ft 469 kts 59°
2026-05-07 11:50 50.21590 -115.57305 35024 ft 468 kts 59°
2026-05-07 11:50 50.24014 -115.47975 35024 ft 467 kts 59°
2026-05-07 11:51 50.26440 -115.38586 35030 ft 466 kts 58°
2026-05-07 11:51 50.28869 -115.29170 35025 ft 467 kts 59°
2026-05-07 11:52 50.31287 -115.19740 35013 ft 467 kts 59°
2026-05-07 11:52 50.33677 -115.10376 35011 ft 465 kts 59°
2026-05-07 11:53 50.36058 -115.01016 35009 ft 464 kts 59°
2026-05-07 11:53 50.38435 -114.91635 35010 ft 465 kts 59°
2026-05-07 11:54 50.40790 -114.82294 35003 ft 463 kts 59°
2026-05-07 11:54 50.43155 -114.72879 35002 ft 463 kts 59°
2026-05-07 11:55 50.45489 -114.63551 34998 ft 462 kts 59°
2026-05-07 11:55 50.47807 -114.54243 34997 ft 461 kts 59°
2026-05-07 11:56 50.50119 -114.44924 34978 ft 461 kts 59°
2026-05-07 11:56 50.52432 -114.35556 34964 ft 460 kts 59°
2026-05-07 11:57 50.54748 -114.26154 34958 ft 462 kts 60°
2026-05-07 11:57 50.57031 -114.16829 34953 ft 460 kts 60°
2026-05-07 11:58 50.59319 -114.07441 34937 ft 461 kts 59°
2026-05-07 11:58 50.61592 -113.98080 34928 ft 459 kts 59°
2026-05-07 11:59 50.63860 -113.88715 34914 ft 460 kts 59°
2026-05-07 11:59 50.66119 -113.79328 34901 ft 458 kts 60°
2026-05-07 12:00 50.68379 -113.69901 34897 ft 459 kts 60°
2026-05-07 12:00 50.70613 -113.60537 34897 ft 459 kts 59°
2026-05-07 12:01 50.72841 -113.51166 34889 ft 457 kts 60°
2026-05-07 12:01 50.75058 -113.41798 34882 ft 457 kts 60°
2026-05-07 12:02 50.77264 -113.32436 34876 ft 455 kts 61°
2026-05-07 12:02 50.79467 -113.23047 34862 ft 456 kts 61°
2026-05-07 12:03 50.81653 -113.13686 34868 ft 456 kts 61°
2026-05-07 12:03 50.83839 -113.04284 34872 ft 455 kts 61°
2026-05-07 12:04 50.86002 -112.94946 34879 ft 455 kts 61°
2026-05-07 12:04 50.88179 -112.85519 34889 ft 455 kts 62°
2026-05-07 12:05 50.90324 -112.76172 34888 ft 456 kts 62°
2026-05-07 12:05 50.92477 -112.66744 34883 ft 455 kts 62°
2026-05-07 12:06 50.94614 -112.57352 34884 ft 456 kts 63°
2026-05-07 12:06 50.96759 -112.47878 34878 ft 457 kts 63°
2026-05-07 12:07 50.98880 -112.38465 34876 ft 456 kts 63°
2026-05-07 12:07 51.01012 -112.28955 34877 ft 456 kts 64°
2026-05-07 12:08 51.03117 -112.19533 34875 ft 456 kts 65°
2026-05-07 12:08 51.05223 -112.10056 34875 ft 456 kts 65°
2026-05-07 12:09 51.07129 -112.00465 34853 ft 460 kts 71°
2026-05-07 12:09 51.08193 -111.90446 34828 ft 465 kts 81°
2026-05-07 12:10 51.08308 -111.80167 34814 ft 468 kts 89°
2026-05-07 12:10 51.07731 -111.69901 34808 ft 469 kts 92°
2026-05-07 12:11 51.07087 -111.59621 34811 ft 468 kts 92°
2026-05-07 12:11 51.06453 -111.49349 34811 ft 466 kts 92°
2026-05-07 12:12 51.05824 -111.39138 34800 ft 466 kts 92°
2026-05-07 12:12 51.05188 -111.28908 34809 ft 466 kts 92°
2026-05-07 12:13 51.04545 -111.18753 34802 ft 465 kts 92°
2026-05-07 12:13 51.03891 -111.08553 34808 ft 465 kts 92°
2026-05-07 12:14 51.03234 -110.98405 34808 ft 465 kts 92°
2026-05-07 12:14 51.02560 -110.88150 34826 ft 465 kts 93°
2026-05-07 12:15 51.01880 -110.77958 34830 ft 465 kts 93°
2026-05-07 12:15 51.01193 -110.67793 34831 ft 464 kts 93°
2026-05-07 12:16 51.00497 -110.57631 34829 ft 463 kts 93°
2026-05-07 12:16 50.99789 -110.47429 34828 ft 463 kts 93°
2026-05-07 12:17 50.99084 -110.37363 34832 ft 462 kts 93°
2026-05-07 12:17 50.98360 -110.27178 34822 ft 462 kts 94°
2026-05-07 12:18 50.97630 -110.17061 34830 ft 462 kts 94°
2026-05-07 12:18 50.96891 -110.06953 34830 ft 462 kts 94°
2026-05-07 12:19 50.96260 -109.96915 34837 ft 461 kts 91°
2026-05-07 12:19 50.95883 -109.86748 34837 ft 461 kts 90°
2026-05-07 12:20 50.95512 -109.76620 34835 ft 461 kts 90°
2026-05-07 12:20 50.95128 -109.66530 34840 ft 461 kts 90°
2026-05-07 12:21 50.94731 -109.56384 34840 ft 462 kts 91°
2026-05-07 12:21 50.94324 -109.46266 34840 ft 462 kts 90°
2026-05-07 12:22 50.93911 -109.36192 34839 ft 463 kts 91°
2026-05-07 12:22 50.93485 -109.26022 34839 ft 463 kts 91°
2026-05-07 12:23 50.93051 -109.15836 34838 ft 463 kts 92°
2026-05-07 12:23 50.92609 -109.05713 34836 ft 463 kts 92°
2026-05-07 12:24 50.92156 -108.95548 34828 ft 463 kts 92°
2026-05-07 12:24 50.91696 -108.85452 34821 ft 463 kts 92°
2026-05-07 12:25 50.91224 -108.75280 34820 ft 463 kts 91°
2026-05-07 12:25 50.90747 -108.65170 34820 ft 464 kts 91°
2026-05-07 12:26 50.90262 -108.55053 34825 ft 464 kts 91°
2026-05-07 12:26 50.89764 -108.44882 34826 ft 464 kts 91°
2026-05-07 12:27 50.89256 -108.34684 34832 ft 465 kts 92°
2026-05-07 12:27 50.88741 -108.24500 34835 ft 466 kts 92°
2026-05-07 12:28 50.88216 -108.14329 34833 ft 465 kts 91°
2026-05-07 12:28 50.87683 -108.04168 34828 ft 465 kts 91°
2026-05-07 12:29 50.87143 -107.94030 34838 ft 464 kts 91°
2026-05-07 12:29 50.86595 -107.83919 34849 ft 464 kts 91°
2026-05-07 12:30 50.86035 -107.73755 34854 ft 465 kts 91°
2026-05-07 12:30 50.85464 -107.63535 34853 ft 465 kts 91°
2026-05-07 12:31 50.84885 -107.53351 34850 ft 466 kts 91°
2026-05-07 12:31 50.84299 -107.43171 34851 ft 466 kts 91°
2026-05-07 12:32 50.83699 -107.32966 34855 ft 466 kts 92°
2026-05-07 12:32 50.83097 -107.22831 34863 ft 465 kts 91°
2026-05-07 12:33 50.82174 -107.07601 34858 ft 466 kts 91°
2026-05-07 12:33 50.81542 -106.97343 34853 ft 466 kts 91°
2026-05-07 12:34 50.80906 -106.87167 34846 ft 466 kts 91°
2026-05-07 12:34 50.80259 -106.76996 34851 ft 466 kts 91°
2026-05-07 12:35 50.79604 -106.66830 34854 ft 466 kts 91°
2026-05-07 12:35 50.78941 -106.56662 34854 ft 466 kts 91°
2026-05-07 12:36 50.78267 -106.46468 34854 ft 467 kts 91°
2026-05-07 12:36 50.77587 -106.36314 34856 ft 466 kts 91°
2026-05-07 12:37 50.76895 -106.26108 34854 ft 467 kts 92°
2026-05-07 12:37 50.76195 -106.15955 34857 ft 467 kts 92°
2026-05-07 12:38 50.75486 -106.05790 34860 ft 467 kts 91°
2026-05-07 12:38 50.74766 -105.95580 34864 ft 467 kts 91°
2026-05-07 12:39 50.74038 -105.85396 34867 ft 467 kts 91°
2026-05-07 12:39 50.73303 -105.75249 34870 ft 467 kts 91°
2026-05-07 12:40 50.72555 -105.65057 34870 ft 468 kts 91°
2026-05-07 12:40 50.71800 -105.54872 34873 ft 468 kts 91°
2026-05-07 12:41 50.71037 -105.44702 34873 ft 468 kts 91°
2026-05-07 12:41 50.70265 -105.34537 34873 ft 468 kts 92°
2026-05-07 12:42 50.69481 -105.24322 34875 ft 470 kts 92°
2026-05-07 12:42 50.68687 -105.14130 34876 ft 470 kts 91°
2026-05-07 12:43 50.67891 -105.04010 34877 ft 470 kts 91°
2026-05-07 12:43 50.67078 -104.93818 34883 ft 469 kts 91°
2026-05-07 12:44 50.66066 -104.83562 34892 ft 472 kts 95°
2026-05-07 12:44 50.64859 -104.73477 34888 ft 472 kts 95°
2026-05-07 12:45 50.63634 -104.63356 34889 ft 472 kts 95°
2026-05-07 12:45 50.62402 -104.53210 34888 ft 472 kts 95°
2026-05-07 12:46 50.61170 -104.43131 34886 ft 472 kts 95°
2026-05-07 12:46 50.59928 -104.33038 34886 ft 472 kts 96°
2026-05-07 12:47 50.58673 -104.22920 34885 ft 473 kts 96°
2026-05-07 12:47 50.57411 -104.12808 34879 ft 474 kts 96°
2026-05-07 12:48 50.56129 -104.02629 34881 ft 474 kts 96°
2026-05-07 12:48 50.54842 -103.92479 34875 ft 474 kts 96°
2026-05-07 12:49 50.53550 -103.82349 34875 ft 474 kts 96°
2026-05-07 12:49 50.52243 -103.72213 34876 ft 474 kts 95°
2026-05-07 12:50 50.50934 -103.62122 34877 ft 473 kts 95°
2026-05-07 12:50 50.49620 -103.52049 34878 ft 473 kts 95°
2026-05-07 12:51 50.48286 -103.41908 34876 ft 473 kts 95°
2026-05-07 12:51 50.46949 -103.31799 34876 ft 473 kts 96°
2026-05-07 12:52 50.45606 -103.21729 34881 ft 473 kts 96°
2026-05-07 12:52 50.44247 -103.11608 34882 ft 474 kts 96°
2026-05-07 12:53 50.42889 -103.01579 34883 ft 473 kts 96°
2026-05-07 12:53 50.41519 -102.91515 34879 ft 473 kts 96°
2026-05-07 12:54 50.40134 -102.81408 34874 ft 474 kts 95°
2026-05-07 12:54 50.38744 -102.71342 34872 ft 474 kts 95°
2026-05-07 12:55 50.37343 -102.61285 34870 ft 474 kts 95°
2026-05-07 12:55 50.35974 -102.51231 34869 ft 472 kts 93°
2026-05-07 12:56 50.35119 -102.41078 34870 ft 468 kts 88°
2026-05-07 12:56 50.34450 -102.30946 34870 ft 468 kts 89°
2026-05-07 12:57 50.33772 -102.20834 34871 ft 469 kts 89°
2026-05-07 12:57 50.33076 -102.10750 34870 ft 468 kts 88°
2026-05-07 12:58 50.32370 -102.00682 34870 ft 468 kts 89°
2026-05-07 12:58 50.31654 -101.90596 34867 ft 468 kts 88°
2026-05-07 12:59 50.30930 -101.80518 34866 ft 468 kts 88°
2026-05-07 12:59 50.30193 -101.70420 34867 ft 469 kts 89°
2026-05-07 13:00 50.29449 -101.60352 34868 ft 468 kts 88°
2026-05-07 13:00 50.28696 -101.50267 34865 ft 469 kts 88°
2026-05-07 13:01 50.27935 -101.40193 34868 ft 468 kts 88°
2026-05-07 13:01 50.27166 -101.30119 34863 ft 469 kts 89°
2026-05-07 13:02 50.26382 -101.19986 34922 ft 469 kts 89°
2026-05-07 13:02 50.25597 -101.09950 34888 ft 469 kts 89°
2026-05-07 13:03 50.24799 -100.99850 34882 ft 470 kts 89°
2026-05-07 13:03 50.23989 -100.89756 34862 ft 470 kts 89°
2026-05-07 13:04 50.23170 -100.79627 34869 ft 470 kts 89°
2026-05-07 13:04 50.22348 -100.69573 34845 ft 470 kts 89°
2026-05-07 13:05 50.21513 -100.59486 34856 ft 469 kts 89°
2026-05-07 13:05 50.20670 -100.49406 34846 ft 468 kts 89°
2026-05-07 13:06 50.19821 -100.39352 34853 ft 468 kts 89°
2026-05-07 13:06 50.18959 -100.29256 34840 ft 468 kts 90°
2026-05-07 13:07 50.18089 -100.19164 34844 ft 468 kts 89°
2026-05-07 13:07 50.17217 -100.09164 34844 ft 468 kts 90°
2026-05-07 13:08 50.16334 -99.99113 34841 ft 468 kts 90°
2026-05-07 13:08 50.15439 -99.89076 34847 ft 468 kts 90°
2026-05-07 13:09 50.14543 -99.79107 34851 ft 467 kts 89°
2026-05-07 13:09 50.13632 -99.69043 34858 ft 468 kts 90°
2026-05-07 13:10 50.12717 -99.59042 34848 ft 467 kts 90°
2026-05-07 13:10 50.11794 -99.49091 34853 ft 467 kts 90°
2026-05-07 13:11 50.10863 -99.39125 34850 ft 466 kts 90°
2026-05-07 13:11 50.09921 -99.29120 34846 ft 467 kts 91°
2026-05-07 13:12 50.08970 -99.19138 34861 ft 467 kts 91°
2026-05-07 13:12 50.08014 -99.09187 34854 ft 468 kts 91°
2026-05-07 13:13 50.07044 -98.99181 34855 ft 467 kts 91°
2026-05-07 13:13 50.06063 -98.89182 34868 ft 466 kts 91°
2026-05-07 13:14 50.05085 -98.79288 34879 ft 466 kts 91°
2026-05-07 13:14 50.04100 -98.69396 34879 ft 464 kts 91°
2026-05-07 13:15 50.03107 -98.59529 34885 ft 464 kts 92°
2026-05-07 13:15 50.02100 -98.49595 34887 ft 465 kts 92°
2026-05-07 13:16 50.01091 -98.39744 34879 ft 465 kts 92°
2026-05-07 13:16 50.00066 -98.29812 34878 ft 465 kts 93°
2026-05-07 13:17 49.99034 -98.19894 34891 ft 465 kts 93°
2026-05-07 13:17 49.97997 -98.10040 34893 ft 465 kts 93°
2026-05-07 13:18 49.96951 -98.00168 34885 ft 464 kts 93°
2026-05-07 13:18 49.95899 -97.90322 34893 ft 464 kts 93°
2026-05-07 13:19 49.94840 -97.80486 34892 ft 464 kts 93°
2026-05-07 13:19 49.93767 -97.70615 34895 ft 464 kts 94°
2026-05-07 13:20 49.92688 -97.60750 34897 ft 464 kts 94°
2026-05-07 13:20 49.91601 -97.50917 34895 ft 464 kts 94°
2026-05-07 13:21 49.90512 -97.41139 34897 ft 463 kts 94°
2026-05-07 13:21 49.89404 -97.31262 34898 ft 463 kts 95°
2026-05-07 13:22 49.88290 -97.21402 34890 ft 464 kts 95°
2026-05-07 13:22 49.87165 -97.11552 34894 ft 463 kts 95°
2026-05-07 13:23 49.86042 -97.01788 34902 ft 464 kts 95°
2026-05-07 13:23 49.84907 -96.91985 34893 ft 464 kts 95°
2026-05-07 13:24 49.83758 -96.82141 34894 ft 464 kts 95°
2026-05-07 13:24 49.82609 -96.72372 34888 ft 464 kts 95°
2026-05-07 13:25 49.81447 -96.62571 34888 ft 463 kts 95°
2026-05-07 13:25 49.80284 -96.52833 34883 ft 463 kts 95°
2026-05-07 13:26 49.79109 -96.43066 34884 ft 463 kts 95°
2026-05-07 13:26 49.77926 -96.33304 34892 ft 463 kts 96°
2026-05-07 13:27 49.76730 -96.23489 34880 ft 463 kts 96°
2026-05-07 13:27 49.75536 -96.13787 34885 ft 463 kts 96°
2026-05-07 13:28 49.74328 -96.04047 34889 ft 463 kts 96°
2026-05-07 13:28 49.73113 -95.94308 34881 ft 462 kts 96°
2026-05-07 13:29 49.71886 -95.84541 34880 ft 462 kts 96°
2026-05-07 13:29 49.70654 -95.74814 34885 ft 462 kts 96°
2026-05-07 13:30 49.69424 -95.65165 34875 ft 462 kts 97°
2026-05-07 13:30 49.68172 -95.55418 34875 ft 463 kts 97°
2026-05-07 13:31 49.66917 -95.45708 34881 ft 463 kts 97°
2026-05-07 13:31 49.65656 -95.36025 34878 ft 463 kts 97°
2026-05-07 13:32 49.64379 -95.26290 34884 ft 463 kts 97°
2026-05-07 13:32 49.63097 -95.16568 34873 ft 463 kts 97°
2026-05-07 13:33 49.61813 -95.06899 34878 ft 463 kts 98°
2026-05-07 13:33 49.60513 -94.97193 34890 ft 463 kts 98°
2026-05-07 13:34 49.58556 -94.82700 34898 ft 463 kts 98°
2026-05-07 13:35 49.57236 -94.73006 34896 ft 463 kts 98°
2026-05-07 13:35 49.55905 -94.63299 34899 ft 463 kts 98°
2026-05-07 13:36 49.54572 -94.53634 34904 ft 463 kts 98°
2026-05-07 13:36 49.53232 -94.43989 34902 ft 462 kts 98°
2026-05-07 13:37 49.51880 -94.34318 34899 ft 463 kts 99°
2026-05-07 13:37 49.50511 -94.24588 34891 ft 463 kts 99°
2026-05-07 13:38 49.49142 -94.14925 34887 ft 463 kts 99°
2026-05-07 13:38 49.47678 -94.05337 34877 ft 464 kts 103°
2026-05-07 13:39 49.45610 -93.95936 34878 ft 465 kts 107°
2026-05-07 13:39 49.43371 -93.86680 34874 ft 465 kts 108°
2026-05-07 13:40 49.41107 -93.77351 34875 ft 465 kts 108°
2026-05-07 13:40 49.38852 -93.68081 34875 ft 466 kts 108°
2026-05-07 13:41 49.36594 -93.58828 34874 ft 465 kts 108°
2026-05-07 13:41 49.34330 -93.49582 34874 ft 465 kts 108°
2026-05-07 13:42 49.32035 -93.40249 34873 ft 465 kts 108°
2026-05-07 13:42 49.29740 -93.30956 34868 ft 465 kts 109°
2026-05-07 13:43 49.27449 -93.21722 34867 ft 465 kts 109°
2026-05-07 13:43 49.25140 -93.12448 34867 ft 465 kts 109°
2026-05-07 13:44 49.22842 -93.03254 34867 ft 465 kts 109°
2026-05-07 13:44 49.20528 -92.94035 34868 ft 465 kts 109°
2026-05-07 13:45 49.18219 -92.84875 34866 ft 465 kts 109°
2026-05-07 13:45 49.15882 -92.75646 34863 ft 465 kts 109°
2026-05-07 13:46 49.13533 -92.66409 34862 ft 466 kts 109°
2026-05-07 13:46 49.11188 -92.57216 34862 ft 465 kts 109°
2026-05-07 13:47 49.08840 -92.48052 34865 ft 465 kts 109°
2026-05-07 13:47 49.07040 -92.41052 34865 ft 464 kts 109°
2026-05-07 13:48 49.04685 -92.31924 34866 ft 464 kts 110°
2026-05-07 13:48 49.02302 -92.22726 34861 ft 464 kts 110°
2026-05-07 13:49 48.99925 -92.13586 34866 ft 464 kts 110°
2026-05-07 13:49 48.97535 -92.04439 34865 ft 465 kts 110°
2026-05-07 13:50 48.95153 -91.95358 34869 ft 465 kts 110°
2026-05-07 13:50 48.92748 -91.86219 34865 ft 465 kts 110°
2026-05-07 13:51 48.90336 -91.77092 34856 ft 464 kts 110°
2026-05-07 13:51 48.87927 -91.68013 34851 ft 464 kts 110°
2026-05-07 13:52 48.85504 -91.58918 34850 ft 464 kts 110°
2026-05-07 13:52 48.83086 -91.49876 34850 ft 464 kts 110°
2026-05-07 13:53 48.80672 -91.40883 34846 ft 464 kts 110°
2026-05-07 13:53 48.78220 -91.31785 34840 ft 464 kts 111°
2026-05-07 13:54 48.75793 -91.22813 34841 ft 464 kts 111°
2026-05-07 13:54 48.73350 -91.13818 34842 ft 463 kts 111°
2026-05-07 13:55 48.70890 -91.04797 34843 ft 463 kts 111°
2026-05-07 13:55 48.68438 -90.95834 34843 ft 463 kts 111°
2026-05-07 13:56 48.65977 -90.86878 34846 ft 463 kts 111°
2026-05-07 13:56 48.63516 -90.77951 34848 ft 463 kts 111°
2026-05-07 13:57 48.61040 -90.69004 34850 ft 463 kts 111°
2026-05-07 13:57 48.58557 -90.60067 34847 ft 463 kts 111°
2026-05-07 13:58 48.56074 -90.51168 34844 ft 463 kts 111°
2026-05-07 13:58 48.53574 -90.42239 34843 ft 462 kts 112°
2026-05-07 13:59 48.51071 -90.33328 34839 ft 462 kts 112°
2026-05-07 13:59 48.48563 -90.24435 34839 ft 462 kts 112°
2026-05-07 14:00 48.46051 -90.15562 34848 ft 466 kts 112°
2026-05-07 14:00 48.43477 -90.06506 35084 ft 470 kts 112°
2026-05-07 14:00 48.42183 -90.01962 35285 ft 470 kts 112°
2026-05-07 14:01 48.40896 -89.97456 35482 ft 470 kts 112°
2026-05-07 14:01 48.39614 -89.92976 35660 ft 470 kts 112°
2026-05-07 14:01 48.38333 -89.88505 35827 ft 470 kts 112°
2026-05-07 14:01 48.37046 -89.84023 35982 ft 470 kts 112°
2026-05-07 14:02 48.35752 -89.79526 36135 ft 470 kts 112°
2026-05-07 14:02 48.34445 -89.74991 36281 ft 470 kts 113°
2026-05-07 14:02 48.33159 -89.70534 36416 ft 471 kts 113°
2026-05-07 14:02 48.31865 -89.66060 36542 ft 471 kts 113°
2026-05-07 14:03 48.30541 -89.61492 36667 ft 472 kts 113°
2026-05-07 14:03 48.29241 -89.57017 36787 ft 472 kts 112°
2026-05-07 14:03 48.27925 -89.52489 36856 ft 473 kts 112°
2026-05-07 14:04 48.25666 -89.43247 36865 ft 473 kts 105°
2026-05-07 14:04 48.24146 -89.33693 36871 ft 472 kts 99°
2026-05-07 14:05 48.23008 -89.24002 36876 ft 472 kts 99°
2026-05-07 14:05 48.21875 -89.14358 36877 ft 472 kts 99°
2026-05-07 14:06 48.20724 -89.04710 36879 ft 472 kts 99°
2026-05-07 14:06 48.19562 -88.95080 36882 ft 472 kts 99°
2026-05-07 14:07 48.18393 -88.85473 36883 ft 472 kts 99°
2026-05-07 14:07 48.17209 -88.75815 36882 ft 472 kts 99°
2026-05-07 14:08 48.16018 -88.66181 36881 ft 472 kts 99°
2026-05-07 14:08 48.14816 -88.56530 36881 ft 473 kts 99°
2026-05-07 14:09 48.13615 -88.46941 36883 ft 473 kts 99°
2026-05-07 14:09 48.12402 -88.37332 36884 ft 473 kts 99°
2026-05-07 14:10 48.11167 -88.27625 36883 ft 472 kts 100°
2026-05-07 14:10 48.09943 -88.18068 36885 ft 472 kts 100°
2026-05-07 14:11 48.08709 -88.08500 36884 ft 472 kts 100°
2026-05-07 14:11 48.07460 -87.98875 36885 ft 472 kts 100°
2026-05-07 14:12 48.06202 -87.89252 36884 ft 472 kts 101°
2026-05-07 14:12 48.04935 -87.79632 36882 ft 473 kts 101°
2026-05-07 14:13 48.03663 -87.70029 36878 ft 472 kts 101°
2026-05-07 14:13 48.02388 -87.60480 36880 ft 472 kts 101°
2026-05-07 14:14 48.01095 -87.50858 36878 ft 472 kts 101°
2026-05-07 14:14 47.99802 -87.41294 36876 ft 472 kts 101°
2026-05-07 14:15 47.98498 -87.31709 36874 ft 473 kts 101°
2026-05-07 14:15 47.97183 -87.22107 36873 ft 473 kts 101°
2026-05-07 14:16 47.95862 -87.12530 36870 ft 473 kts 101°
2026-05-07 14:16 47.94532 -87.02945 36869 ft 473 kts 101°
2026-05-07 14:17 47.93200 -86.93414 36868 ft 473 kts 101°
2026-05-07 14:17 47.91852 -86.83823 36867 ft 473 kts 102°
2026-05-07 14:18 47.90506 -86.74312 36869 ft 472 kts 102°
2026-05-07 14:18 47.89142 -86.64739 36866 ft 472 kts 102°
2026-05-07 14:19 47.87770 -86.55176 36867 ft 473 kts 102°
2026-05-07 14:19 47.86398 -86.45663 36869 ft 473 kts 102°
2026-05-07 14:20 47.85006 -86.36070 36868 ft 473 kts 102°
2026-05-07 14:20 47.83601 -86.26447 36869 ft 473 kts 102°
2026-05-07 14:21 47.82198 -86.16905 36868 ft 473 kts 102°
2026-05-07 14:21 47.80795 -86.07423 36870 ft 473 kts 102°
2026-05-07 14:22 47.79378 -85.97903 36869 ft 473 kts 102°
2026-05-07 14:22 47.77953 -85.88379 36867 ft 473 kts 103°
2026-05-07 14:23 47.76523 -85.78885 36855 ft 473 kts 103°
2026-05-07 14:23 47.75080 -85.69361 36851 ft 473 kts 103°
2026-05-07 14:24 47.73634 -85.59875 36857 ft 474 kts 103°
2026-05-07 14:24 47.72174 -85.50352 36860 ft 474 kts 103°
2026-05-07 14:25 47.70713 -85.40878 36870 ft 474 kts 103°
2026-05-07 14:25 47.69235 -85.31353 36869 ft 474 kts 103°
2026-05-07 14:26 47.67753 -85.21860 36875 ft 474 kts 103°
2026-05-07 14:26 47.66270 -85.12415 36877 ft 474 kts 103°
2026-05-07 14:27 47.64771 -85.02921 36882 ft 474 kts 103°
2026-05-07 14:27 47.63268 -84.93458 36884 ft 474 kts 104°
2026-05-07 14:28 47.61751 -84.83965 36874 ft 474 kts 103°
2026-05-07 14:28 47.60227 -84.74480 36866 ft 474 kts 104°
2026-05-07 14:29 47.58691 -84.64969 36863 ft 475 kts 104°
2026-05-07 14:29 47.57142 -84.55437 36859 ft 475 kts 104°
2026-05-07 14:30 47.55589 -84.45936 36858 ft 475 kts 104°
2026-05-07 14:30 47.54022 -84.36406 36851 ft 475 kts 104°
2026-05-07 14:31 47.52446 -84.26868 36845 ft 475 kts 104°
2026-05-07 14:31 47.50855 -84.17299 36841 ft 475 kts 104°
2026-05-07 14:32 47.49274 -84.07840 36841 ft 475 kts 104°
2026-05-07 14:32 47.47678 -83.98341 36840 ft 475 kts 104°
2026-05-07 14:33 47.46075 -83.88854 36841 ft 476 kts 105°
2026-05-07 14:33 47.44473 -83.79422 36836 ft 476 kts 105°
2026-05-07 14:34 47.42860 -83.69988 36832 ft 476 kts 105°
2026-05-07 14:34 47.41236 -83.60531 36831 ft 476 kts 104°
2026-05-07 14:35 47.39610 -83.51115 36826 ft 476 kts 104°
2026-05-07 14:35 47.37979 -83.41718 36828 ft 477 kts 105°
2026-05-07 14:36 47.36332 -83.32279 36827 ft 476 kts 105°
2026-05-07 14:36 47.34675 -83.22832 36826 ft 477 kts 105°
2026-05-07 14:37 47.33003 -83.13359 36823 ft 477 kts 105°
2026-05-07 14:37 47.30495 -82.99242 36822 ft 477 kts 105°
2026-05-07 14:38 47.28810 -82.89812 36822 ft 477 kts 105°
2026-05-07 14:38 47.27123 -82.80421 36817 ft 477 kts 105°
2026-05-07 14:39 47.25420 -82.70991 36815 ft 477 kts 105°
2026-05-07 14:39 47.23711 -82.61575 36819 ft 477 kts 105°
2026-05-07 14:40 47.22002 -82.52210 36814 ft 477 kts 106°
2026-05-07 14:40 47.20279 -82.42819 36812 ft 478 kts 105°
2026-05-07 14:41 47.18534 -82.33358 36812 ft 478 kts 106°
2026-05-07 14:41 47.16791 -82.23947 36812 ft 478 kts 106°
2026-05-07 14:42 47.15040 -82.14545 36813 ft 479 kts 107°
2026-05-07 14:42 47.13282 -82.05144 36814 ft 479 kts 107°
2026-05-07 14:43 47.11508 -81.95717 36815 ft 480 kts 107°
2026-05-07 14:43 47.09739 -81.86360 36820 ft 479 kts 107°
2026-05-07 14:44 47.07955 -81.76975 36828 ft 479 kts 107°
2026-05-07 14:44 47.06165 -81.67601 36826 ft 479 kts 107°
2026-05-07 14:45 47.04353 -81.58159 36829 ft 479 kts 107°
2026-05-07 14:45 47.02548 -81.48792 36835 ft 479 kts 107°
2026-05-07 14:46 47.00735 -81.39439 36836 ft 479 kts 107°
2026-05-07 14:46 46.98918 -81.30111 36835 ft 479 kts 107°
2026-05-07 14:47 46.97083 -81.20737 36832 ft 479 kts 107°
2026-05-07 14:47 46.95244 -81.11380 36830 ft 480 kts 107°
2026-05-07 14:48 46.93395 -81.02024 36831 ft 481 kts 107°
2026-05-07 14:48 46.91535 -80.92658 36828 ft 481 kts 107°
2026-05-07 14:49 46.89668 -80.83295 36832 ft 481 kts 107°
2026-05-07 14:49 46.87785 -80.73898 36839 ft 481 kts 108°
2026-05-07 14:50 46.85909 -80.64577 36841 ft 481 kts 108°
2026-05-07 14:50 46.84008 -80.55195 36842 ft 480 kts 108°
2026-05-07 14:51 46.82124 -80.45932 36845 ft 480 kts 108°
2026-05-07 14:51 46.80225 -80.36634 36844 ft 480 kts 108°
2026-05-07 14:52 46.78298 -80.27244 36837 ft 481 kts 108°
2026-05-07 14:52 46.76377 -80.17918 36836 ft 481 kts 108°
2026-05-07 14:53 46.74452 -80.08624 36838 ft 481 kts 109°
2026-05-07 14:53 46.72482 -79.99165 36840 ft 482 kts 109°
2026-05-07 14:54 46.70535 -79.89856 36845 ft 482 kts 109°
2026-05-07 14:54 46.68575 -79.80531 36847 ft 482 kts 108°
2026-05-07 14:55 46.66623 -79.71281 36846 ft 482 kts 108°
2026-05-07 14:55 46.64652 -79.61977 36844 ft 481 kts 108°
2026-05-07 14:56 46.62678 -79.52704 36844 ft 481 kts 108°
2026-05-07 14:56 46.60695 -79.43425 36843 ft 481 kts 109°
2026-05-07 14:57 46.58700 -79.34140 36841 ft 481 kts 109°
2026-05-07 14:57 46.56704 -79.24898 36838 ft 481 kts 109°
2026-05-07 14:58 46.54700 -79.15658 36836 ft 481 kts 109°
2026-05-07 14:58 46.52690 -79.06431 36831 ft 482 kts 109°
2026-05-07 14:59 46.50661 -78.97156 36826 ft 482 kts 109°
2026-05-07 14:59 46.48634 -78.87923 36826 ft 481 kts 110°
2026-05-07 15:00 46.46611 -78.78749 36829 ft 481 kts 110°
2026-05-07 15:00 46.44558 -78.69492 36830 ft 481 kts 110°
2026-05-07 15:01 46.42498 -78.60240 36825 ft 481 kts 110°
2026-05-07 15:01 46.40432 -78.51004 36824 ft 481 kts 110°
2026-05-07 15:02 46.38358 -78.41773 36729 ft 482 kts 110°
2026-05-07 15:02 46.37322 -78.37171 36515 ft 480 kts 110°
2026-05-07 15:02 46.36294 -78.32614 36303 ft 478 kts 111°
2026-05-07 15:03 46.35256 -78.28030 36089 ft 476 kts 111°
2026-05-07 15:03 46.34216 -78.23448 35862 ft 474 kts 111°
2026-05-07 15:03 46.33143 -78.18931 35548 ft 471 kts 113°
2026-05-07 15:03 46.31914 -78.14565 35121 ft 470 kts 117°
2026-05-07 15:04 46.30504 -78.10332 34548 ft 471 kts 120°
2026-05-07 15:04 46.29008 -78.06132 33970 ft 472 kts 121°
2026-05-07 15:04 46.27496 -78.01925 33363 ft 475 kts 121°
2026-05-07 15:04 46.25963 -77.97663 32795 ft 478 kts 121°
2026-05-07 15:05 46.24422 -77.93378 32303 ft 477 kts 120°
2026-05-07 15:05 46.22897 -77.89130 31891 ft 475 kts 120°
2026-05-07 15:05 46.21392 -77.84937 31452 ft 473 kts 120°
2026-05-07 15:05 46.19893 -77.80762 31003 ft 471 kts 120°
2026-05-07 15:06 46.18388 -77.76575 30557 ft 469 kts 120°
2026-05-07 15:06 46.16898 -77.72437 30103 ft 468 kts 120°
2026-05-07 15:06 46.15382 -77.68231 29598 ft 466 kts 120°
2026-05-07 15:06 46.13908 -77.64149 29123 ft 463 kts 120°
2026-05-07 15:07 46.12426 -77.60055 28652 ft 460 kts 120°
2026-05-07 15:07 46.10961 -77.56010 28185 ft 457 kts 120°
2026-05-07 15:07 46.09496 -77.51977 27718 ft 454 kts 120°
2026-05-07 15:07 46.08049 -77.47999 27254 ft 450 kts 119°
2026-05-07 15:08 46.06599 -77.44016 26787 ft 446 kts 119°
2026-05-07 15:08 46.05179 -77.40117 26347 ft 443 kts 119°
2026-05-07 15:08 46.03749 -77.36199 25886 ft 439 kts 119°
2026-05-07 15:08 46.02344 -77.32349 25409 ft 434 kts 120°
2026-05-07 15:09 46.00941 -77.28513 24965 ft 429 kts 120°
2026-05-07 15:09 45.99566 -77.24770 24517 ft 424 kts 120°
2026-05-07 15:09 45.98203 -77.21056 24066 ft 419 kts 120°
2026-05-07 15:09 45.96846 -77.17364 23620 ft 414 kts 120°
2026-05-07 15:10 45.95504 -77.13721 23196 ft 409 kts 120°
2026-05-07 15:10 45.94197 -77.10177 22784 ft 405 kts 120°
2026-05-07 15:10 45.92887 -77.06627 22366 ft 400 kts 120°
2026-05-07 15:10 45.91595 -77.03130 21958 ft 396 kts 120°
2026-05-07 15:11 45.90300 -76.99633 21540 ft 393 kts 120°
2026-05-07 15:11 45.89028 -76.96204 21118 ft 389 kts 120°
2026-05-07 15:11 45.87766 -76.92804 20708 ft 386 kts 120°
2026-05-07 15:11 45.86509 -76.89423 20297 ft 383 kts 120°
2026-05-07 15:12 45.85250 -76.86043 19881 ft 380 kts 120°
2026-05-07 15:12 45.84019 -76.82741 19476 ft 377 kts 120°
2026-05-07 15:12 45.82776 -76.79416 19068 ft 375 kts 120°
2026-05-07 15:12 45.81552 -76.76141 18670 ft 372 kts 120°
2026-05-07 15:13 45.80343 -76.72910 18276 ft 369 kts 120°
2026-05-07 15:13 45.79125 -76.69659 17879 ft 367 kts 120°
2026-05-07 15:13 45.77931 -76.66478 17488 ft 365 kts 120°
2026-05-07 15:13 45.76733 -76.63291 17095 ft 362 kts 120°
2026-05-07 15:14 45.75551 -76.60147 16707 ft 360 kts 120°
2026-05-07 15:14 45.74363 -76.56994 16315 ft 358 kts 120°
2026-05-07 15:14 45.73194 -76.53886 15927 ft 356 kts 120°
2026-05-07 15:14 45.72026 -76.50794 15543 ft 354 kts 120°
2026-05-07 15:15 45.70857 -76.47698 15154 ft 352 kts 120°
2026-05-07 15:15 45.69695 -76.44628 14772 ft 350 kts 120°
2026-05-07 15:15 45.68540 -76.41576 14372 ft 348 kts 120°
2026-05-07 15:15 45.67439 -76.38524 13967 ft 348 kts 114°
2026-05-07 15:16 45.66641 -76.35274 13673 ft 345 kts 108°
2026-05-07 15:16 45.65962 -76.31979 13426 ft 344 kts 107°
2026-05-07 15:16 45.65289 -76.28704 13174 ft 342 kts 108°
2026-05-07 15:16 45.64608 -76.25498 12845 ft 341 kts 108°
2026-05-07 15:17 45.63901 -76.22279 12481 ft 338 kts 109°
2026-05-07 15:17 45.63177 -76.19088 11982 ft 339 kts 109°
2026-05-07 15:17 45.62443 -76.15874 11256 ft 346 kts 109°
2026-05-07 15:17 45.61696 -76.12605 10703 ft 346 kts 109°
2026-05-07 15:18 45.60964 -76.09407 10206 ft 333 kts 109°
2026-05-07 15:18 45.60269 -76.06371 9950 ft 317 kts 109°
2026-05-07 15:18 45.59594 -76.03421 9772 ft 308 kts 109°
2026-05-07 15:18 45.58932 -76.00538 9410 ft 304 kts 109°
2026-05-07 15:19 45.58279 -75.97703 9056 ft 301 kts 109°
2026-05-07 15:19 45.57621 -75.94851 8704 ft 298 kts 109°
2026-05-07 15:19 45.56973 -75.92053 8370 ft 295 kts 109°
2026-05-07 15:19 45.56333 -75.89285 8043 ft 292 kts 109°
2026-05-07 15:20 45.55703 -75.86565 7710 ft 289 kts 109°
2026-05-07 15:20 45.55077 -75.83862 7380 ft 286 kts 109°
2026-05-07 15:20 45.54452 -75.81168 7054 ft 284 kts 109°
2026-05-07 15:20 45.53837 -75.78521 6732 ft 281 kts 108°
2026-05-07 15:21 45.53230 -75.75913 6414 ft 278 kts 108°
2026-05-07 15:21 45.52619 -75.73286 6092 ft 276 kts 109°
2026-05-07 15:21 45.52020 -75.70715 5774 ft 274 kts 109°
2026-05-07 15:21 45.51427 -75.68173 5459 ft 272 kts 109°
2026-05-07 15:22 45.50828 -75.65611 5141 ft 270 kts 109°
2026-05-07 15:22 45.50235 -75.63081 4827 ft 268 kts 109°
2026-05-07 15:22 45.49647 -75.60573 4600 ft 262 kts 109°
2026-05-07 15:22 45.49089 -75.58189 4518 ft 251 kts 109°
2026-05-07 15:23 45.48542 -75.55861 4426 ft 242 kts 109°
2026-05-07 15:23 45.48000 -75.53598 4337 ft 241 kts 113°
2026-05-07 15:23 45.47060 -75.51691 4138 ft 236 kts 145°
2026-05-07 15:23 45.45702 -75.50436 3939 ft 228 kts 153°
2026-05-07 15:24 45.44352 -75.49309 3743 ft 222 kts 153°
2026-05-07 15:24 45.43044 -75.48196 3590 ft 212 kts 153°
2026-05-07 15:24 45.41826 -75.47137 3438 ft 201 kts 154°
2026-05-07 15:24 45.40539 -75.46654 3205 ft 186 kts 195°
2026-05-07 15:25 45.39540 -75.47573 3074 ft 170 kts 240°
2026-05-07 15:25 45.39015 -75.49030 2889 ft 160 kts 249°
2026-05-07 15:25 45.38558 -75.50394 2632 ft 148 kts 248°
2026-05-07 15:25 45.38088 -75.51677 2408 ft 146 kts 246°
2026-05-07 15:26 45.37593 -75.52930 2212 ft 145 kts 245°
2026-05-07 15:26 45.37075 -75.54172 2026 ft 144 kts 244°
2026-05-07 15:26 45.36556 -75.55376 1842 ft 141 kts 243°
2026-05-07 15:26 45.36043 -75.56499 1642 ft 130 kts 243°
2026-05-07 15:27 45.35567 -75.57564 1452 ft 126 kts 245°
2026-05-07 15:27 45.35126 -75.58643 1321 ft 126 kts 245°
2026-05-07 15:27 45.34667 -75.59709 1151 ft 126 kts 242°
2026-05-07 15:27 45.34177 -75.60751 1041 ft 125 kts 243°
2026-05-07 15:28 45.33711 -75.61794 876 ft 125 kts 243°
2026-05-07 15:28 45.33244 -75.62856 693 ft 125 kts 243°
2026-05-07 15:28 45.32779 -75.63895 518 ft 124 kts 244°
2026-05-07 15:28 45.32320 -75.64910 375 ft 120 kts 242°
2026-05-07 15:29 45.31942 -75.65778 373 ft 79 kts 237°
2026-05-07 15:29 45.31716 -75.66279 374 ft 49 kts 237°
2026-05-07 15:29 45.31548 -75.66644 375 ft 40 kts 236°
2026-05-07 15:29 45.31421 -75.66924 373 ft 22 kts 237°
2026-05-07 15:30 45.31364 -75.67053 370 ft 10 kts 246°
2026-05-07 15:30 45.31381 -75.67135 370 ft 9 kts 327°
2026-05-07 15:30 45.31436 -75.67134 372 ft 7 kts 13°
2026-05-07 15:30 45.31483 -75.67119 374 ft 6 kts 12°
2026-05-07 15:31 45.31520 -75.67108 375 ft 5 kts 12°
2026-05-07 15:31 45.31559 -75.67091 376 ft 6 kts 25°
2026-05-07 15:31 45.31601 -75.67034 377 ft 9 kts 57°
2026-05-07 15:31 45.31641 -75.66946 378 ft 11 kts 57°
2026-05-07 15:32 45.31689 -75.66838 378 ft 13 kts 58°
2026-05-07 15:32 45.31741 -75.66721 378 ft 14 kts 57°
2026-05-07 15:32 45.31800 -75.66595 377 ft 15 kts 56°
2026-05-07 15:32 45.31848 -75.66489 376 ft 9 kts 38°
2026-05-07 15:33 45.31901 -75.66504 377 ft 8 kts 311°
2026-05-07 15:33 45.31934 -75.66568 377 ft 7 kts 305°
2026-05-07 15:33 45.31966 -75.66631 378 ft 7 kts 306°
2026-05-07 15:33 45.31998 -75.66693 379 ft 7 kts 306°
2026-05-07 15:34 45.32032 -75.66758 379 ft 8 kts 306°
2026-05-07 15:34 45.32067 -75.66822 379 ft 6 kts 321°
2026-05-07 15:34 45.32099 -75.66816 379 ft 5 kts 37°
2026-05-07 15:34 45.32124 -75.66791 379 ft 3 kts 35°
2026-05-07 15:35 45.32139 -75.66775 379 ft 1 kts 35°
2026-05-07 15:35 45.32149 -75.66766 379 ft 1 kts 35°
2026-05-07 15:35 45.32150 -75.66764 379 ft 0 kts 35°